Home > Weather > Khanty-Mansiysk > Past weeks

Flag for Russia Weather for the Past 2 Weeks in Khanty-Mansiysk, Russia

Now
23 °F

Passing clouds.


Feels Like: 18 °F
Forecast: 15 / 21 °F
Wind: 3 mph from South

Location: Hanty-Mansijsk

Current Time: Feb 13, 2016 at 2:34:51 AM

Latest Report: Feb 13, 2016 at 2:00 AM


Visibility: 4 mi

Pressure: 30.57 "Hg

Humidity: 93%

Dew point: 21 °F

Location of Khanty-MansiyskLocation

Historic Weather in Khanty-Mansiysk — Graph

°F

Khanty-Mansiysk Temperature Yesterday

Maximum temperature yesterday: 25 °F (at 11:30 AM)
Minimum temperature yesterday: 21 °F (at 7:00 AM)
Average temperature yesterday: 23 °F

High & Low Weather Summary for the Past Weeks

 TemperatureHumidityPressure
High28 °F (Feb 3, 1:00 PM)93% (Feb 2, 4:00 PM)30.57 "Hg (Feb 2, 4:00 PM)
Low-15 °F (Jan 29, 7:30 AM)66% (Jan 30, 8:30 PM)29.47 "Hg (Feb 6, 5:00 AM)
Average10 °F82%30.03 "Hg
* Reported Jan 29 1:00 AM — Feb 13 1:30 AM, Khanty-Mansiysk, Weather by CustomWeather, © 2016

Note: Actual official high and low records may vary slightly from our data, if they occured in-between our weather recording intervals... More about our weather records

Advertising

Khanty-Mansiysk Weather History for the Previous 24 Hours

 ConditionsComfort  
Time TempWeatherWind HumidityBarometerVisibility
1:30 AM
Sat, Feb 13
23 °FPassing clouds.3 mph93%30.57 "Hg4 mi
1:00 AM23 °FIce fog.3 mph93%30.57 "Hg1 mi
12:30 AM23 °FIce fog.3 mph93%30.57 "Hg1 mi
12:00 AM23 °FCold.3 mph93%30.57 "Hg1 mi
11:30 PM
Fri, Feb 12
23 °FCold.3 mph93%30.54 "Hg1 mi
11:00 PM23 °FCold.6 mph93%30.54 "Hg0 mi
10:30 PM23 °FCold.3 mph93%30.54 "Hg0 mi
10:00 PM23 °FIce fog.3 mph86%30.54 "Hg1 mi
9:30 PM21 °FCold.3 mph93%30.54 "Hg1 mi
9:00 PM21 °FIce fog.3 mph93%30.54 "Hg1 mi
8:30 PM21 °FIce fog.3 mph93%30.54 "Hg3 mi
8:00 PM21 °FIce fog.3 mph93%30.54 "Hg3 mi
7:30 PM21 °FPassing clouds.6 mph93%30.54 "HgN/A
7:00 PM21 °FPassing clouds.6 mph93%30.54 "HgN/A
6:30 PM23 °FPassing clouds.3 mph86%30.54 "HgN/A
6:00 PM23 °FPartly sunny.3 mph86%30.54 "HgN/A
5:30 PM23 °FPartly sunny.3 mph86%30.54 "HgN/A
5:00 PM23 °FPartly sunny.3 mph86%30.51 "HgN/A
4:30 PM23 °FPartly sunny.3 mph86%30.51 "HgN/A
4:00 PM23 °FPartly sunny.3 mph86%30.51 "HgN/A
3:30 PM23 °FPartly sunny.3 mph86%30.51 "HgN/A
3:00 PM23 °FPartly sunny.1 mph86%30.48 "Hg6 mi
2:30 PM23 °FPartly sunny.3 mph86%30.48 "HgN/A
2:00 PM25 °FPartly sunny.3 mph80%30.48 "HgN/A
1:30 PM25 °FPartly sunny.3 mph80%30.48 "HgN/A
1:00 PM25 °FPartly sunny.3 mph80%30.48 "HgN/A
12:30 PM25 °FPartly sunny.3 mph80%30.48 "HgN/A
12:00 PM25 °FPartly sunny.1 mph80%30.48 "HgN/A
11:30 AM25 °FPartly sunny.1 mph80%30.48 "HgN/A
11:00 AM23 °FPartly sunny.No wind86%30.45 "HgN/A
10:30 AM23 °FPartly sunny.No wind86%30.45 "HgN/A
10:00 AM23 °FPartly sunny.No wind86%30.45 "HgN/A
9:30 AM23 °FPartly sunny.No wind86%30.45 "HgN/A
9:00 AM21 °FPassing clouds.No wind86%30.42 "HgN/A
8:30 AM21 °FPassing clouds.1 mph93%30.42 "HgN/A
8:00 AM23 °FPassing clouds.No wind86%30.42 "HgN/A
7:30 AM23 °FPassing clouds.No wind86%30.42 "HgN/A
7:00 AM21 °FPassing clouds.No wind93%30.42 "HgN/A
6:30 AM23 °FPassing clouds.1 mph86%30.39 "HgN/A
6:00 AM23 °FPassing clouds.1 mph86%30.39 "HgN/A
5:30 AM23 °FPassing clouds.No wind86%30.39 "HgN/A
5:00 AM23 °FPassing clouds.No wind86%30.39 "HgN/A
4:30 AM23 °FPassing clouds.1 mph86%30.39 "HgN/A
4:00 AM23 °FPassing clouds.No wind86%30.36 "HgN/A
2:30 AM23 °FPassing clouds.1 mph86%30.33 "HgN/A
2:00 AM23 °FPassing clouds.1 mph86%30.33 "HgN/A
Weather by CustomWeather, © 2016

See weather overviewHow to use our weather pages